Wind_Speed
38 38 35 36 32 33 36 35 34 34 34 33 32 33 36 44 51 54 56 55 53 53 51 51 48 48 49 51 47 44 38 44 46 44 45 44 43 43 44 46 49 43 41 40 38
42 46 45 42 37 35 36 38 41 35 35 36 37 36 35 36 39 44 49 50 51 51 53 53 53 51 51 53 52 48 44 50 51 50 49 49 50 49 47 48 52 51 43 41 44
45 47 49 49 44 38 39 39 41 38 38 38 37 39 39 40 41 41 42 45 49 51 52 53 55 56 56 54 55 51 50 55 56 55 54 53 54 53 53 53 56 55 51 46 50
46 48 51 51 50 46 44 40 39 45 43 40 41 41 42 42 41 42 44 45 45 47 49 51 52 53 54 54 56 54 58 58 58 56 56 56 57 58 54 57 56 57 55 56 59
50 50 53 55 57 51 49 50 46 43 46 46 43 41 42 47 45 44 43 47 49 50 49 50 51 51 52 53 54 54 57 58 60 60 61 60 59 54 53 59 59 61 62 63 63
51 54 57 56 56 57 53 55 53 49 48 49 50 50 49 49 47 48 48 49 50 53 56 57 57 57 56 58 58 58 60 62 61 66 67 65 64 61 68 67 66 66 67 68 66
54 53 56 55 57 52 51 50 53 55 58 52 54 57 56 59 57 56 55 55 54 54 56 59 61 61 59 61 63 64 63 66 68 70 68 69 62 65 70 71 69 70 70 71 72
53 53 51 55 55 51 45 45 48 54 55 57 59 58 58 61 60 60 60 60 60 59 59 62 58 59 66 67 66 67 67 67 69 70 68 68 62 71 74 73 73 75 74 75 76
50 48 49 48 49 45 34 29 30 38 41 44 46 47 49 51 51 54 55 57 56 56 58 58 59 57 59 61 60 58 59 59 62 64 62 59 53 57 61 63 67 68 68 69 69
49 48 42 44 37 35 34 32 33 35 37 37 36 37 39 41 44 45 44 45 46 49 50 52 55 57 60 60 60 60 58 56 57 60 57 51 46 49 50 51 55 56 58 60 61
47 46 44 41 41 45 45 43 47 40 49 41 43 47 50 52 53 51 53 55 55 55 56 57 58 61 61 63 61 61 58 56 62 63 60 61 53 56 59 55 60 64 66 66 66
46 48 52 49 47 48 49 53 56 55 53 54 53 54 56 59 57 57 60 59 60 62 63 64 67 66 67 68 68 66 67 66 69 71 68 67 59 61 67 66 69 73 75 76 76
52 53 53 57 57 60 61 60 60 62 60 62 67 68 71 67 65 71 67 62 68 68 70 72 73 74 75 74 72 73 73 76 80 81 80 77 67 67 69 76 80 84 82 83 84
56 55 56 61 65 64 67 67 64 68 68 64 68 71 74 75 73 74 69 71 72 70 78 74 80 82 84 86 88 86 88 87 84 84 83 84 81 76 81 86 89 91 90 88 89
55 55 59 63 68 71 74 75 78 79 77 75 76 78 77 77 79 83 81 84 85 84 75 77 79 82 81 82 87 90 93 95 96 95 92 88 95 79 86 92 94 95 96 96 96
59 62 66 70 74 76 76 79 80 80 82 83 85 86 87 87 90 92 87 90 88 82 80 76 84 85 88 91 93 96 98 102 104 104 102 99 103 95 96 97 99 102 105 102 102
65 70 71 75 81 85 88 90 89 88 91 90 92 95 95 95 98 95 92 88 87 87 82 84 84 85 90 94 97 101 105 109 113 113 111 109 110 106 107 106 105 102 105 109 109
78 81 84 85 87 87 93 98 96 96 98 100 99 102 99 94 87 87 88 87 89 90 88 84 84 90 91 92 94 96 101 105 106 103 102 100 101 101 100 103 102 106 108 110 110
83 86 88 90 93 93 94 97 98 99 99 101 102 98 92 85 84 83 81 83 85 88 89 87 82 87 90 91 93 94 98 101 105 105 104 98 99 100 96 94 96 97 100 105 107
87 88 91 94 97 100 103 100 96 93 94 89 89 87 84 83 81 81 82 81 83 84 85 87 82 82 87 90 94 97 99 101 101 103 100 94 93 95 94 95 98 97 94 94 96
96 98 95 94 95 96 97 92 89 88 89 87 85 84 83 82 82 83 84 86 86 85 86 88 85 81 84 86 87 88 90 94 95 95 95 89 86 86 90 93 94 93 91 91 92
99 96 96 94 93 94 92 89 87 89 89 88 87 84 84 84 84 86 88 90 91 91 89 89 86 81 82 83 83 85 86 87 90 90 90 89 81 83 87 86 85 84 85 88 89
97 98 95 92 92 89 89 90 89 89 89 87 88 85 86 86 87 87 90 89 88 88 87 85 84 83 80 80 81 81 82 83 85 87 85 86 76 79 83 79 76 77 82 84 85
94 92 88 85 85 86 86 87 89 89 88 87 86 86 86 84 86 86 85 83 83 84 85 82 81 83 81 77 76 74 76 81 83 81 83 78 75 79 77 75 76 76 77 79 80
92 89 87 86 84 84 84 85 86 86 86 84 85 84 85 85 83 80 80 77 78 81 82 81 76 78 78 81 83 81 82 88 89 87 86 79 77 76 73 71 69 69 68 69 70
93 90 86 84 82 82 84 84 84 86 83 84 80 80 84 80 78 75 77 78 75 78 78 77 76 78 78 87 90 88 93 95 93 88 87 88 83 83 79 78 75 74 74 73 74
93 92 89 84 82 81 83 83 84 81 79 81 78 77 78 76 76 75 75 73 71 69 72 73 79 83 83 90 92 91 91 88 84 81 79 81 81 84 85 85 84 83 84 83 83
Wind_Direction
337 336 330 322 319 314 319 318 314 306 301 298 297 292 280 272 266 268 270 271 273 275 276 277 277 275 272 273 275 276 273 277 280 283 285 288 290 290 291 287 288 282 282 285 286
331 327 329 323 317 312 311 316 315 310 304 302 300 297 294 287 278 274 271 269 271 272 272 274 276 275 274 272 273 274 273 272 277 281 286 289 290 291 289 288 282 285 281 278 279
324 322 316 317 312 306 303 305 304 306 307 303 297 294 294 292 292 285 279 276 273 273 273 273 274 274 273 272 269 273 271 273 274 281 285 285 286 288 289 281 279 280 277 276 277
322 318 313 309 304 299 299 296 295 296 297 300 297 297 293 291 290 286 285 280 276 274 274 273 271 271 271 271 269 269 271 274 277 280 279 281 283 286 285 270 268 268 275 278 283
320 317 314 307 301 294 288 290 293 287 291 292 284 284 285 285 284 283 283 282 281 279 276 273 272 271 272 272 272 272 272 274 276 277 279 280 280 283 276 268 269 275 274 277 279
318 312 312 314 307 294 286 283 283 286 283 284 286 282 278 275 277 276 278 279 279 280 280 277 275 275 273 271 273 273 274 277 281 279 278 280 282 283 271 274 273 272 273 276 277
314 312 315 315 316 307 291 279 279 281 284 290 284 284 284 282 280 280 277 274 274 276 276 275 274 275 275 277 277 274 275 278 277 275 276 276 279 275 273 273 272 272 272 274 274
309 311 310 315 318 317 294 279 274 276 282 285 286 285 283 284 282 283 281 280 279 277 277 273 273 275 273 276 276 276 275 273 273 273 271 271 271 270 269 268 268 270 272 274 274
303 304 311 314 320 320 323 310 305 293 287 294 293 292 291 289 288 288 287 285 283 282 279 279 276 277 274 274 276 274 273 272 271 271 272 272 270 268 269 271 271 271 272 271 270
299 306 312 317 322 327 322 327 315 310 302 299 303 303 302 299 297 295 294 293 288 285 281 281 281 282 279 280 278 277 275 272 272 273 272 276 276 276 273 273 271 270 270 271 269
294 300 302 308 312 315 314 316 317 313 315 317 315 310 303 303 296 293 294 295 292 289 287 287 284 281 282 280 281 276 271 269 271 273 272 273 273 272 273 271 271 270 269 270 270
291 296 299 302 303 305 307 308 310 309 307 307 306 306 304 306 307 303 292 286 285 284 284 283 281 281 281 282 280 278 271 269 271 273 273 272 268 267 267 268 269 269 266 267 273
299 288 293 298 301 302 303 303 304 305 305 301 303 303 303 300 302 305 300 299 287 281 282 282 280 279 278 279 278 278 278 275 273 272 272 270 266 264 266 266 266 267 268 267 268
303 293 290 296 299 300 302 301 299 298 298 296 296 298 299 299 299 301 297 297 297 293 278 276 277 278 279 278 276 277 278 279 275 273 272 272 270 266 265 267 267 268 269 268 268
304 302 298 296 298 300 300 299 299 297 296 295 291 291 291 293 295 296 295 294 295 295 288 275 275 274 275 278 279 278 275 275 276 275 272 272 270 266 267 266 266 268 267 265 266
305 302 298 298 299 297 295 295 293 292 293 292 292 291 291 291 292 293 291 290 291 288 284 282 271 272 273 273 273 273 273 273 274 274 274 271 271 270 268 266 263 263 265 266 266
301 299 297 297 298 296 294 293 292 293 294 293 293 294 291 289 289 287 286 283 281 284 279 278 277 275 274 273 274 273 272 272 273 273 274 274 272 271 268 264 261 260 262 264 263
298 296 296 293 292 292 293 292 291 290 290 290 290 293 293 293 290 287 283 279 281 283 284 283 279 279 280 280 279 278 276 276 277 275 273 273 273 272 271 270 267 263 262 261 262
300 298 296 292 291 290 291 291 292 290 290 291 292 292 293 293 288 285 283 280 281 282 284 284 284 283 282 281 281 280 279 278 278 278 277 277 277 276 275 272 270 266 264 261 261
306 304 302 299 295 293 292 295 298 297 293 293 294 294 293 291 290 289 289 288 287 286 288 288 286 285 284 283 282 282 282 281 280 280 279 279 278 278 277 276 272 269 267 265 264
305 305 303 302 301 299 298 298 298 297 297 297 296 295 294 292 290 291 291 292 292 291 290 289 288 288 286 284 283 281 281 281 281 281 280 278 277 276 275 272 272 272 273 271 268
303 303 302 301 301 299 299 299 299 299 297 297 296 294 293 294 294 294 294 295 295 294 293 292 293 291 289 287 286 284 283 282 281 281 281 281 279 277 273 272 272 273 271 269 269
300 301 302 303 301 300 299 298 298 297 296 295 295 295 295 295 294 294 295 293 293 293 292 293 294 293 291 290 288 285 283 283 282 281 281 278 279 275 274 275 273 271 270 270 270
302 302 300 300 298 297 297 297 297 296 294 294 295 295 295 294 293 294 293 293 294 293 293 294 295 294 293 292 288 286 285 285 283 282 278 280 278 276 274 274 272 270 269 269 270
303 303 303 302 299 297 295 294 294 293 293 295 294 294 293 292 293 292 292 292 292 291 292 293 293 291 293 292 291 290 289 285 283 282 282 280 279 275 276 274 271 269 269 269 269
305 303 301 301 299 297 295 293 293 291 293 293 294 293 292 294 293 292 292 292 292 293 294 295 293 292 294 291 292 292 288 286 286 282 280 277 276 275 274 273 272 270 270 269 267
303 303 302 301 300 298 296 294 292 293 294 293 292 292 293 293 293 293 293 293 293 293 293 293 294 295 294 292 292 291 288 285 283 281 279 276 275 274 274 273 273 273 273 273 272
Height
10785 10781 10777 10773 10768 10763 10758 10752 10747 10743 10741 10738 10736 10733 10731 10730 10728 10727 10724 10723 10723 10721 10720 10719 10719 10718 10717 10716 10717 10716 10719 10712 10708 10710 10708 10706 10705 10703 10701 10698 10694 10692 10694 10692 10692
10779 10773 10769 10765 10761 10756 10751 10746 10741 10738 10734 10731 10729 10726 10724 10721 10719 10718 10715 10715 10713 10712 10711 10709 10708 10708 10708 10706 10707 10706 10708 10701 10700 10700 10701 10698 10696 10694 10692 10688 10684 10685 10685 10684 10680
10774 10769 10763 10758 10754 10750 10745 10741 10736 10731 10728 10724 10723 10719 10716 10714 10712 10709 10707 10705 10704 10703 10702 10700 10698 10697 10696 10697 10695 10698 10696 10690 10690 10689 10690 10689 10686 10684 10682 10677 10672 10674 10676 10674 10673
10768 10762 10756 10750 10746 10742 10737 10732 10728 10724 10721 10717 10714 10711 10708 10706 10704 10702 10699 10696 10693 10691 10690 10689 10687 10686 10684 10685 10683 10687 10680 10680 10678 10678 10677 10676 10675 10674 10672 10661 10662 10661 10664 10662 10661
10759 10752 10747 10740 10734 10731 10727 10722 10719 10715 10712 10708 10705 10702 10699 10694 10694 10690 10689 10687 10685 10683 10680 10678 10676 10675 10672 10671 10672 10673 10668 10668 10667 10663 10663 10663 10661 10664 10658 10650 10650 10651 10651 10650 10648
10749 10742 10736 10728 10722 10715 10713 10710 10707 10705 10701 10697 10694 10692 10688 10683 10681 10680 10679 10675 10674 10671 10669 10667 10665 10664 10663 10658 10659 10659 10656 10654 10654 10648 10648 10649 10651 10654 10635 10638 10638 10636 10635 10635 10634
10739 10732 10725 10718 10709 10702 10698 10696 10695 10692 10689 10687 10683 10679 10676 10670 10669 10667 10665 10663 10661 10658 10655 10653 10652 10649 10649 10643 10644 10643 10644 10642 10636 10630 10634 10632 10641 10634 10624 10623 10623 10622 10620 10618 10616
10728 10724 10716 10708 10698 10689 10683 10682 10681 10680 10677 10675 10671 10668 10663 10657 10655 10653 10650 10648 10646 10644 10641 10638 10636 10634 10632 10628 10628 10628 10628 10624 10617 10614 10615 10613 10628 10612 10607 10608 10607 10605 10604 10602 10598
10719 10714 10708 10702 10691 10682 10676 10673 10672 10668 10665 10663 10659 10656 10650 10647 10644 10639 10637 10635 10632 10629 10626 10622 10620 10617 10612 10610 10614 10608 10610 10607 10602 10596 10596 10598 10604 10595 10591 10590 10590 10588 10584 10581 10578
10710 10704 10699 10695 10686 10679 10674 10670 10668 10663 10657 10655 10651 10646 10641 10637 10633 10628 10625 10621 10618 10615 10612 10608 10606 10600 10596 10595 10595 10591 10591 10590 10586 10581 10581 10585 10587 10580 10576 10576 10574 10570 10566 10564 10562
10702 10695 10689 10686 10680 10673 10667 10663 10659 10654 10645 10644 10642 10636 10631 10626 10621 10616 10613 10609 10605 10601 10597 10595 10591 10584 10582 10578 10577 10574 10573 10573 10567 10564 10568 10568 10575 10567 10562 10564 10558 10552 10548 10546 10547
10693 10685 10678 10675 10670 10664 10658 10653 10648 10645 10634 10629 10629 10626 10621 10614 10608 10604 10599 10595 10591 10587 10583 10581 10573 10568 10564 10561 10559 10556 10555 10553 10551 10547 10549 10552 10561 10554 10544 10544 10538 10532 10528 10528 10527
10683 10676 10667 10660 10657 10652 10647 10642 10637 10632 10629 10619 10609 10606 10603 10599 10594 10588 10583 10578 10573 10568 10565 10563 10555 10549 10545 10541 10538 10536 10534 10532 10529 10527 10529 10530 10543 10538 10533 10521 10514 10507 10507 10508 10507
10669 10664 10658 10650 10644 10638 10634 10628 10622 10616 10614 10609 10600 10589 10585 10578 10576 10570 10564 10559 10554 10548 10544 10541 10532 10529 10524 10520 10512 10517 10507 10505 10504 10501 10506 10506 10513 10521 10510 10497 10491 10487 10487 10486 10485
10657 10651 10645 10639 10630 10624 10617 10611 10605 10598 10594 10592 10583 10574 10566 10561 10556 10551 10543 10537 10532 10527 10521 10516 10511 10505 10501 10493 10487 10487 10484 10479 10475 10474 10477 10483 10470 10498 10483 10476 10471 10464 10461 10462 10461
10645 10638 10629 10624 10617 10609 10599 10592 10585 10578 10572 10566 10560 10553 10546 10542 10535 10528 10520 10513 10508 10503 10497 10490 10486 10482 10477 10470 10463 10457 10454 10448 10446 10444 10447 10450 10440 10465 10453 10448 10444 10444 10435 10435 10435
10629 10622 10615 10606 10597 10588 10580 10572 10565 10556 10547 10545 10535 10528 10523 10517 10509 10502 10495 10488 10480 10475 10473 10466 10461 10455 10449 10444 10437 10430 10423 10418 10413 10413 10412 10415 10408 10418 10416 10413 10407 10412 10411 10405 10405
10611 10602 10595 10586 10576 10566 10557 10547 10540 10534 10525 10517 10511 10503 10497 10489 10481 10474 10467 10459 10451 10443 10442 10442 10439 10429 10422 10415 10406 10401 10393 10384 10376 10381 10384 10386 10380 10379 10378 10374 10374 10380 10382 10375 10372
10588 10577 10570 10562 10551 10542 10533 10522 10515 10506 10498 10490 10481 10474 10470 10461 10454 10449 10441 10434 10425 10418 10410 10406 10410 10401 10395 10389 10382 10376 10364 10356 10344 10345 10345 10354 10350 10345 10345 10344 10342 10342 10342 10343 10346
10565 10553 10542 10533 10525 10516 10504 10496 10488 10478 10469 10463 10458 10451 10444 10437 10430 10420 10414 10408 10398 10391 10387 10378 10380 10377 10366 10360 10352 10344 10336 10326 10319 10312 10315 10323 10320 10313 10314 10309 10301 10304 10313 10320 10320
10539 10530 10517 10506 10496 10486 10476 10469 10460 10451 10443 10436 10430 10424 10416 10413 10407 10399 10387 10378 10371 10366 10358 10348 10349 10352 10344 10334 10325 10318 10308 10295 10290 10287 10280 10290 10294 10292 10283 10274 10271 10277 10286 10285 10282
10515 10503 10492 10482 10473 10461 10452 10442 10435 10426 10417 10412 10406 10399 10391 10386 10380 10370 10359 10352 10342 10333 10329 10321 10318 10320 10312 10303 10296 10288 10283 10274 10264 10262 10256 10254 10268 10259 10248 10249 10251 10254 10253 10250 10251
10495 10481 10469 10457 10446 10438 10427 10416 10410 10402 10394 10388 10380 10375 10367 10361 10350 10346 10337 10328 10317 10307 10301 10297 10291 10285 10284 10276 10265 10261 10255 10248 10242 10235 10234 10226 10242 10230 10218 10225 10229 10230 10224 10221 10221
10467 10458 10450 10442 10428 10417 10406 10395 10386 10378 10372 10364 10359 10351 10345 10339 10329 10323 10315 10307 10295 10284 10275 10273 10269 10257 10252 10249 10242 10239 10231 10220 10211 10212 10203 10211 10212 10200 10200 10203 10202 10202 10199 10197 10197
10438 10433 10424 10414 10407 10397 10387 10375 10366 10359 10350 10344 10336 10329 10318 10315 10309 10301 10292 10286 10274 10263 10256 10251 10250 10237 10231 10221 10213 10213 10209 10191 10184 10184 10179 10186 10181 10175 10174 10175 10175 10175 10177 10175 10174
10409 10404 10400 10392 10383 10372 10357 10350 10339 10330 10329 10319 10315 10306 10294 10291 10286 10282 10272 10258 10254 10241 10232 10224 10222 10217 10214 10195 10187 10187 10171 10158 10155 10156 10151 10146 10154 10147 10149 10148 10149 10149 10150 10152 10153
10387 10377 10369 10365 10356 10347 10333 10324 10314 10312 10307 10295 10291 10285 10274 10267 10262 10255 10247 10238 10234 10227 10217 10209 10199 10191 10189 10170 10163 10155 10138 10128 10125 10121 10122 10120 10120 10121 10119 10120 10121 10122 10123 10124 10126